Location: Unspecified
(51.5147°N, 7.4673°E)
Time: 14:57:13
(UTC+01:00)

Explorer 7 - Pass Details

Date: 22 February 2026
Orbit: 430 x 541 km, 50.2° (Epoch: 11 March)

Event Time Altitude Azimuth Distance (km) Brightness Sun altitude
Rises 15:45:46 0° 254° (WSW) 2,426 11.3 17.0°
Reaches altitude 10° 15:47:52 10° 251° (WSW) 1,571 10.6 16.8°
Maximum altitude 15:51:22 65° 170° (S) 507 7.1 16.4°
Drops below altitude 10° 15:55:01 10° 88° (E) 1,632 8.8 15.9°
Sets 15:57:13 0° 85° (E) 2,532 9.7 15.7°
